User: anonymous   Login
Location: Bakov nad Jizerou
(50.4784°N, 14.9394°E)
Time: 16:06:50
(UTC+00:00)
Language:

FALCON 9 DEB - Orbit

View from above orbital plane
View from above orbital plane
View from above satellite
View from above satellite

Ground track
Ground track

The orbit data is extracted from the following two-line orbital elements,

1 46087U 20055BN  21269.12085941  .00032234  00000-0  26613-3 0  9992
2 46087  53.0050  58.2973 0009267 199.7283 160.3376 15.69997247 69490
Epoch (UTC): 26 September 2021 02:54:02
Eccentricity: 0.0009267
inclination: 53.0050°
perigee height: 352 km
apogee height: 365 km
right ascension of ascending node: 58.2973°
argument of perigee: 199.7283°
revolutions per day: 15.69997247
mean anomaly at epoch: 160.3376°
orbit number at epoch: 6949

The dashed part of the orbit path shows where the satellite is in the earth's shadow,  

DLR